Wetbulb
71.80 74.23 75.72 75.23 74.21 74.61 74.31 74.06 74.07 73.87 73.34 72.88 72.82 73.49 74.03 74.23 74.35 74.06 73.71 73.94 74.60 73.77 73.44 73.31 72.96 73.12 73.43 73.10 73.07 72.86 73.39 73.62 73.59 73.72 73.86 74.08 73.90 73.38 72.61 72.49 73.25 73.86 74.56
73.46 74.30 75.01 74.49 74.21 74.48 74.14 73.99 73.80 72.97 72.88 73.42 74.08 74.10 74.33 75.01 74.70 74.28 73.77 73.84 73.51 73.17 72.90 72.81 72.71 72.55 72.09 71.78 71.91 72.12 72.29 72.47 72.64 73.17 72.05 71.55 71.51 72.78 73.14 73.30 73.35 74.75 74.16
73.55 74.43 73.57 74.22 74.60 74.26 73.97 73.60 72.82 72.79 73.70 74.13 74.25 74.91 74.31 73.70 73.15 73.18 72.95 72.23 72.09 72.11 71.90 71.19 70.92 70.77 70.81 71.20 71.13 71.22 71.35 71.57 71.98 71.96 70.37 70.85 70.64 71.05 73.52 73.19 73.45 74.88 74.44
73.91 74.50 74.06 75.15 74.56 74.14 73.55 72.90 72.62 73.66 74.36 74.73 74.50 74.01 73.13 72.71 72.06 71.59 71.39 71.13 70.29 69.45 68.89 68.99 68.72 68.75 68.70 68.91 69.07 69.17 69.45 70.35 71.51 70.72 69.73 69.37 69.98 70.12 71.04 72.88 74.32 74.69 74.09
73.57 74.32 74.57 75.03 74.40 73.79 73.02 72.62 73.36 74.53 74.61 73.53 72.90 72.35 70.84 69.18 68.52 68.23 68.13 68.13 68.48 68.64 68.81 68.56 68.56 68.40 68.21 68.54 69.10 70.25 69.53 69.88 70.12 68.36 67.34 67.88 69.47 71.29 70.15 71.53 74.16 74.56 74.24
73.02 73.81 74.78 74.78 74.08 73.44 72.60 73.53 74.43 74.51 73.96 73.41 72.49 70.56 68.45 68.21 68.26 68.89 68.10 68.16 68.29 68.27 68.43 68.19 67.73 67.73 67.62 67.54 67.86 68.64 70.40 68.93 67.54 67.52 68.57 69.75 69.31 69.59 72.74 74.57 74.45 74.93 74.24
72.18 73.73 74.28 74.23 73.78 72.60 73.49 74.43 74.51 73.53 72.72 71.99 70.22 69.11 68.18 67.73 67.65 67.70 68.02 68.26 68.00 67.99 67.75 67.57 67.35 67.00 67.91 67.86 67.92 68.75 68.92 69.80 68.28 69.22 69.71 70.31 73.41 74.06 73.78 74.17 74.83 73.43 72.94
72.00 73.36 73.76 74.26 73.07 73.73 74.58 74.36 73.61 72.34 71.42 70.60 69.58 68.79 68.03 67.82 67.53 67.05 68.05 68.21 67.62 67.46 67.30 66.79 67.24 68.17 68.43 68.73 68.49 68.99 69.46 69.36 67.70 69.66 71.29 72.67 72.78 73.09 72.21 71.98 72.42 72.24 72.08
72.45 72.85 73.47 73.09 73.29 74.50 74.25 73.36 72.34 71.38 70.42 69.88 69.31 69.00 67.96 67.79 67.23 67.66 67.66 67.19 67.06 66.78 66.95 67.54 67.61 67.94 67.99 68.26 68.56 68.64 68.83 68.91 67.29 69.21 70.25 71.73 72.44 72.42 72.13 72.02 71.55 71.50 71.56
71.99 72.41 72.68 71.90 72.73 73.40 73.61 72.27 71.22 70.27 69.75 69.39 69.09 67.13 66.05 68.07 68.02 66.98 67.92 66.95 66.32 66.50 67.10 67.04 67.00 67.22 67.23 67.54 68.01 67.90 67.64 67.03 67.24 68.78 69.56 70.58 71.60 70.58 70.52 70.58 70.76 70.89 70.74
70.41 71.98 72.25 71.31 72.96 72.89 72.34 70.76 69.98 68.75 68.43 68.35 68.36 65.84 65.54 66.60 66.78 65.93 65.92 65.42 65.36 66.46 66.75 66.52 66.17 65.54 64.98 66.17 67.00 67.21 66.74 66.67 67.00 67.65 69.02 69.72 70.61 70.38 70.52 70.26 70.32 70.38 70.87
68.25 70.15 71.52 72.14 72.22 72.08 69.93 69.28 68.52 68.18 66.54 67.99 66.11 65.75 65.66 66.41 65.23 64.01 64.14 64.41 64.65 65.83 65.91 65.87 65.25 64.39 64.30 64.76 65.78 66.20 66.18 66.54 66.89 66.90 68.32 68.94 69.23 69.68 70.10 70.16 69.90 70.13 70.00
68.92 69.05 69.96 72.02 72.36 70.88 68.60 67.64 66.89 65.80 65.44 65.45 64.87 65.24 65.13 63.72 63.46 62.59 62.68 63.16 63.84 63.43 63.84 63.97 63.82 63.45 63.99 64.33 65.60 65.90 66.17 66.17 66.48 67.12 68.07 68.34 68.66 68.95 68.91 68.81 68.93 68.86 68.71
68.52 69.38 69.73 71.16 71.33 70.42 68.75 67.32 66.41 64.86 64.74 64.69 64.35 64.77 62.76 62.83 62.46 62.17 62.13 62.62 63.28 63.55 63.38 63.73 63.75 64.24 63.55 63.71 64.14 64.55 65.05 65.78 66.22 66.82 67.15 67.47 67.49 67.98 68.07 67.99 68.06 68.15 67.95
68.90 69.77 69.61 70.47 70.83 69.85 68.89 67.80 65.72 64.76 64.16 64.39 64.17 64.71 63.76 62.32 61.99 62.12 62.06 62.31 62.50 63.13 62.86 62.87 63.58 63.49 62.76 62.18 62.30 62.44 62.73 63.61 63.95 64.64 65.92 66.58 66.58 66.86 67.13 67.25 67.21 67.04 66.63
69.53 69.26 69.72 70.27 70.69 69.71 68.68 67.89 65.17 64.79 64.20 63.96 63.98 64.19 63.03 61.90 62.06 61.56 61.43 61.30 61.35 61.92 61.83 62.29 63.34 63.33 62.67 61.80 61.68 62.17 62.34 62.35 62.55 62.76 63.49 64.87 64.96 65.24 65.58 65.91 66.14 65.95 65.83
69.67 69.62 69.74 70.04 70.37 69.59 68.84 67.72 65.20 64.64 63.57 63.29 63.40 63.01 61.70 62.23 62.19 61.48 60.56 60.30 60.58 61.18 61.75 61.63 62.79 63.71 62.75 62.17 61.65 61.51 61.63 62.19 61.47 62.06 62.32 62.69 63.50 63.78 64.39 64.68 64.90 64.64 64.34
69.72 68.98 69.69 69.45 69.43 69.61 68.85 67.60 65.33 64.44 64.65 64.18 63.79 62.09 61.25 61.62 61.49 60.80 59.16 58.96 59.97 61.07 61.38 60.06 60.81 61.59 62.32 62.19 61.48 61.25 60.84 60.84 60.62 61.20 61.53 61.06 60.96 61.63 62.91 63.04 61.86 61.31 61.07
69.79 69.29 69.21 69.77 68.99 69.24 68.19 67.32 65.01 64.32 64.24 63.87 63.71 61.88 60.86 60.41 59.97 59.49 58.60 58.24 60.11 60.19 60.35 59.07 58.28 60.37 60.57 61.50 61.54 61.82 61.18 60.31 59.87 59.85 60.29 59.97 60.23 60.01 60.67 60.32 59.04 59.09 59.19
69.68 69.73 69.58 69.64 69.30 68.38 66.21 63.96 63.06 63.07 62.39 62.66 63.52 62.22 60.87 59.98 59.30 59.16 58.07 57.95 58.99 59.04 59.09 57.89 57.13 56.42 58.16 60.48 60.49 60.85 61.86 60.79 60.94 60.35 59.98 59.69 60.21 59.77 59.46 58.86 57.81 57.51 58.07
69.17 69.33 69.57 68.14 67.04 66.21 63.30 61.44 60.65 59.70 60.74 61.54 62.52 60.82 59.95 59.32 58.73 58.65 57.12 57.36 57.27 57.64 58.65 57.36 56.16 56.04 54.91 58.72 59.69 59.10 59.78 60.70 61.11 61.00 61.66 61.20 59.83 60.28 59.78 59.42 58.19 57.47 57.16
68.68 69.15 67.65 66.11 64.75 62.54 62.18 61.72 61.38 60.69 59.72 60.28 61.16 60.60 59.00 58.86 58.50 58.24 58.00 57.08 57.07 55.84 56.15 56.50 56.72 55.01 54.79 56.93 57.63 58.07 54.08 55.85 58.19 58.28 59.86 59.85 60.27 60.61 59.70 59.46 59.21 59.31 58.41
67.69 67.58 64.44 61.86 62.92 61.11 60.05 60.12 58.77 59.16 57.76 57.89 56.84 57.59 58.63 58.76 58.75 58.97 58.21 57.41 57.03 57.15 55.09 56.72 56.09 55.66 53.22 54.02 55.13 56.18 53.56 51.36 54.53 55.54 55.82 56.63 56.46 58.70 59.50 58.83 59.14 58.99 59.35
65.26 65.21 64.79 65.01 62.62 63.00 60.54 60.29 58.70 57.02 56.36 57.65 57.96 57.02 57.87 58.90 58.60 58.11 58.10 57.50 56.75 55.74 56.29 55.95 55.61 55.40 56.08 52.33 53.06 53.30 54.28 54.21 51.05 49.41 53.91 55.10 55.72 56.95 57.11 55.29 55.60 58.24 59.46
65.06 65.81 65.49 66.41 65.27 63.66 61.41 61.00 59.71 59.63 59.36 57.62 56.00 56.61 57.34 58.04 58.02 57.10 57.96 57.88 56.69 55.03 55.96 55.93 55.69 55.30 55.19 54.26 53.43 52.70 53.47 52.95 53.76 50.96 49.14 52.05 54.34 55.89 55.83 56.12 55.93 56.06 58.02
68.07 67.88 68.11 67.03 65.74 63.50 61.74 60.54 61.00 60.26 58.44 56.50 56.85 55.74 55.70 56.14 56.71 57.63 57.25 57.72 57.20 55.76 55.46 55.63 56.03 56.16 55.33 55.04 54.14 54.27 53.20 52.29 51.82 51.85 50.71 51.33 49.92 53.02 53.77 54.75 55.37 55.75 57.44
MSLP
1014.78 1014.90 1015.52 1015.93 1016.34 1016.61 1016.73 1016.88 1016.93 1016.93 1017.00 1017.26 1017.28 1017.23 1017.33 1017.41 1017.47 1017.43 1017.29 1017.27 1017.15 1017.10 1017.13 1017.14 1017.09 1016.90 1016.73 1016.63 1016.61 1016.57 1016.51 1016.34 1016.24 1016.04 1015.96 1015.88 1015.83 1015.75 1015.68 1015.70 1015.64 1015.12 1015.70
1014.62 1015.06 1015.79 1016.24 1016.48 1016.72 1016.79 1017.10 1017.21 1017.26 1017.24 1017.37 1017.53 1017.64 1017.53 1017.55 1017.62 1017.63 1017.52 1017.44 1017.41 1017.41 1017.42 1017.42 1017.37 1017.23 1017.02 1016.82 1016.80 1016.75 1016.61 1016.44 1016.29 1016.11 1016.05 1015.80 1015.78 1015.77 1015.72 1015.67 1015.71 1015.20 1015.69
1014.81 1015.26 1015.89 1016.37 1016.60 1016.89 1016.97 1017.07 1017.28 1017.44 1017.43 1017.52 1017.54 1017.59 1017.69 1017.75 1017.92 1017.91 1017.78 1017.83 1017.76 1017.76 1017.71 1017.64 1017.62 1017.48 1017.30 1017.08 1016.89 1016.76 1016.66 1016.52 1016.35 1016.22 1016.09 1015.46 1015.27 1015.64 1015.61 1015.62 1015.64 1015.68 1015.79
1015.04 1015.43 1015.76 1016.31 1016.47 1016.67 1016.95 1017.06 1017.19 1017.35 1017.60 1017.56 1017.66 1017.66 1018.03 1017.96 1018.04 1018.01 1017.99 1017.94 1017.96 1017.92 1017.95 1017.87 1017.77 1017.53 1017.38 1017.23 1016.97 1016.80 1016.64 1016.44 1016.32 1016.23 1015.55 1015.51 1015.33 1015.43 1015.53 1015.45 1015.40 1015.60 1015.77
1015.23 1015.63 1015.94 1016.38 1016.57 1016.78 1017.18 1017.17 1017.29 1017.33 1017.58 1017.70 1017.81 1017.99 1018.19 1018.28 1018.29 1018.29 1018.30 1018.19 1018.12 1018.10 1018.06 1018.03 1017.90 1017.72 1017.45 1017.25 1017.08 1016.81 1016.51 1016.33 1016.20 1015.77 1015.50 1015.41 1015.35 1015.03 1015.39 1015.36 1015.19 1015.42 1015.66
1015.40 1015.66 1016.24 1016.62 1016.85 1017.08 1017.17 1017.18 1017.40 1017.53 1017.73 1017.94 1018.15 1018.23 1018.42 1018.50 1018.49 1018.52 1018.55 1018.37 1018.23 1018.20 1018.11 1018.11 1018.02 1017.86 1017.71 1017.36 1017.21 1016.84 1016.60 1016.46 1016.17 1015.54 1015.56 1015.40 1015.32 1015.40 1015.16 1014.91 1014.90 1015.18 1015.59
1015.38 1015.74 1016.08 1016.76 1017.05 1017.18 1017.39 1017.41 1017.45 1017.69 1017.88 1018.09 1018.33 1018.36 1018.53 1018.58 1018.60 1018.69 1018.62 1018.54 1018.47 1018.45 1018.27 1018.28 1018.10 1017.98 1017.75 1017.39 1017.23 1017.00 1016.85 1016.67 1015.79 1015.55 1015.37 1015.55 1015.30 1015.38 1015.11 1014.95 1015.02 1015.42 1015.71
1015.17 1015.58 1016.05 1016.63 1016.90 1017.21 1017.36 1017.63 1017.84 1017.88 1018.06 1018.27 1018.40 1018.41 1018.53 1018.58 1018.66 1018.78 1018.81 1018.74 1018.76 1018.74 1018.55 1018.49 1018.24 1018.20 1017.97 1017.74 1017.53 1017.24 1017.11 1016.72 1015.96 1015.69 1015.46 1015.22 1015.87 1015.53 1015.42 1015.42 1015.50 1015.61 1015.77
1015.31 1015.63 1016.06 1016.47 1016.98 1017.27 1017.56 1017.68 1017.95 1018.11 1018.27 1018.28 1018.38 1018.58 1018.68 1018.66 1018.73 1018.85 1018.90 1018.89 1018.88 1018.81 1018.64 1018.61 1018.57 1018.41 1018.21 1018.04 1017.88 1017.65 1017.43 1017.01 1016.05 1015.91 1015.56 1015.58 1016.04 1015.73 1015.67 1015.60 1015.62 1015.68 1015.75
1015.62 1015.77 1016.19 1016.67 1016.74 1016.96 1017.29 1017.81 1018.05 1018.17 1018.60 1018.65 1018.76 1018.93 1019.04 1018.93 1018.88 1019.04 1018.98 1019.00 1018.97 1018.88 1018.87 1018.89 1018.83 1018.69 1018.57 1018.44 1018.27 1018.05 1017.68 1017.22 1016.55 1016.21 1016.00 1016.34 1016.28 1016.18 1016.10 1015.95 1015.87 1015.85 1015.84
1016.09 1016.05 1016.26 1016.66 1016.94 1016.96 1017.07 1017.77 1018.14 1018.39 1018.77 1018.84 1018.98 1019.22 1019.18 1019.06 1019.09 1019.11 1019.36 1019.46 1019.40 1019.27 1019.28 1019.17 1019.06 1019.05 1019.04 1018.96 1018.85 1018.53 1017.93 1017.43 1016.99 1016.71 1016.58 1017.05 1016.63 1016.54 1016.44 1016.27 1016.18 1016.11 1016.04
1015.89 1016.27 1016.62 1016.80 1016.93 1017.11 1017.34 1017.65 1018.08 1018.38 1018.54 1018.75 1018.97 1019.21 1019.11 1019.44 1019.53 1019.58 1019.80 1019.97 1019.84 1019.74 1019.77 1019.67 1019.57 1019.43 1018.97 1018.71 1018.60 1018.53 1018.15 1018.00 1017.61 1017.23 1017.51 1017.43 1017.01 1016.78 1016.70 1016.64 1016.55 1016.48 1016.46
1015.73 1016.32 1016.69 1016.88 1017.21 1017.13 1017.17 1017.72 1018.03 1018.50 1018.62 1019.03 1019.30 1019.32 1019.60 1019.74 1019.89 1019.76 1019.79 1019.86 1019.96 1020.06 1019.77 1019.81 1019.61 1019.56 1019.56 1019.30 1019.16 1019.01 1018.80 1018.46 1018.17 1017.94 1018.24 1017.89 1017.46 1017.26 1017.16 1017.11 1017.06 1016.97 1016.91
1015.50 1016.10 1016.56 1016.65 1017.03 1017.22 1017.13 1017.62 1018.11 1018.47 1018.75 1018.93 1019.20 1019.52 1019.80 1019.79 1020.07 1020.04 1020.00 1020.13 1020.23 1020.23 1020.30 1020.14 1020.08 1020.19 1020.14 1019.97 1019.64 1019.49 1019.33 1018.98 1018.81 1018.74 1018.80 1018.54 1018.12 1017.87 1017.63 1017.48 1017.55 1017.47 1017.42
1015.16 1015.75 1016.41 1016.76 1016.92 1017.25 1017.43 1017.65 1018.23 1018.64 1018.82 1019.09 1019.23 1019.30 1019.55 1019.63 1019.96 1020.09 1020.17 1020.14 1020.34 1020.35 1020.47 1020.51 1020.55 1020.40 1020.35 1020.32 1020.17 1020.10 1019.94 1019.82 1019.76 1019.48 1019.22 1019.29 1018.91 1018.55 1018.30 1018.20 1018.09 1018.03 1017.95
1014.93 1015.45 1016.11 1016.53 1016.71 1017.18 1017.44 1017.88 1018.31 1018.77 1019.08 1019.05 1019.33 1019.66 1019.78 1019.93 1020.14 1020.08 1020.09 1020.14 1020.34 1020.49 1020.64 1020.65 1020.57 1020.51 1020.57 1020.56 1020.67 1020.63 1020.52 1020.43 1020.47 1020.31 1020.02 1020.03 1019.75 1019.33 1018.98 1018.64 1018.64 1018.59 1018.44
1014.50 1015.35 1016.09 1016.60 1016.87 1017.49 1017.89 1018.38 1018.53 1018.81 1019.12 1019.18 1019.32 1019.78 1020.11 1020.09 1020.26 1020.29 1020.21 1020.33 1020.44 1020.71 1020.90 1020.87 1020.75 1020.81 1020.69 1020.87 1021.21 1021.11 1021.01 1021.09 1020.95 1020.96 1020.63 1020.47 1020.21 1020.15 1019.88 1019.52 1019.43 1019.07 1018.87
1014.70 1015.54 1016.07 1016.60 1017.38 1018.13 1018.54 1018.93 1018.98 1019.20 1019.26 1019.48 1019.89 1019.82 1020.16 1020.30 1020.44 1020.57 1020.51 1020.75 1020.96 1020.69 1020.65 1020.72 1020.83 1020.77 1020.89 1020.94 1021.19 1021.45 1021.56 1021.48 1021.41 1021.27 1021.33 1021.06 1020.86 1020.68 1020.46 1020.29 1020.10 1019.97 1019.41
1014.72 1015.34 1015.95 1016.90 1017.74 1018.45 1019.11 1019.47 1019.76 1019.92 1019.89 1020.13 1020.44 1020.24 1020.28 1020.30 1020.71 1020.60 1020.77 1020.94 1021.09 1020.84 1020.67 1020.63 1021.15 1021.24 1021.09 1021.26 1021.59 1021.62 1021.59 1021.80 1021.86 1021.63 1021.60 1021.66 1021.48 1021.35 1021.10 1021.16 1020.91 1020.61 1020.14
1014.43 1015.16 1015.91 1016.69 1017.45 1018.31 1019.00 1019.90 1020.59 1020.72 1020.69 1020.64 1020.67 1020.66 1020.43 1020.52 1020.77 1020.83 1021.00 1021.03 1020.98 1020.83 1020.80 1020.91 1020.97 1021.53 1021.47 1021.39 1021.36 1021.90 1021.94 1021.82 1022.15 1022.02 1021.87 1021.72 1021.87 1021.83 1021.63 1021.52 1021.02 1020.94 1020.74
1013.69 1014.71 1015.62 1017.07 1018.02 1018.66 1019.44 1020.09 1020.71 1020.93 1021.28 1021.30 1021.04 1021.09 1021.08 1020.83 1021.03 1021.00 1021.19 1021.38 1021.11 1021.11 1021.32 1021.32 1021.24 1021.35 1021.59 1021.85 1021.56 1022.00 1022.13 1022.01 1022.40 1022.29 1022.02 1021.78 1021.84 1022.07 1022.04 1021.78 1021.31 1021.08 1020.85
1013.50 1014.45 1015.77 1016.82 1017.88 1019.01 1019.98 1020.09 1020.32 1020.84 1021.08 1021.19 1021.38 1021.59 1021.24 1021.23 1021.27 1021.05 1021.11 1021.34 1021.50 1021.34 1021.59 1021.50 1021.27 1021.26 1021.69 1022.07 1021.22 1021.18 1021.40 1021.89 1021.99 1022.35 1022.17 1022.10 1021.96 1021.94 1022.01 1021.92 1021.81 1021.42 1021.22
1014.11 1015.15 1016.26 1017.33 1018.08 1019.49 1018.67 1019.53 1020.12 1020.72 1021.30 1021.19 1021.33 1021.52 1021.06 1021.19 1021.23 1021.34 1021.52 1021.61 1021.68 1021.39 1021.37 1021.67 1021.37 1021.44 1021.36 1022.04 1022.13 1021.42 1021.24 1020.97 1021.70 1022.20 1022.29 1022.30 1022.18 1021.83 1021.92 1021.93 1021.83 1021.44 1021.33
1014.09 1014.82 1015.67 1015.92 1015.55 1015.30 1017.25 1018.44 1018.76 1019.43 1019.83 1020.05 1020.62 1021.11 1021.02 1021.13 1021.39 1021.48 1021.58 1021.84 1021.68 1021.51 1021.66 1021.80 1021.40 1021.68 1021.57 1021.47 1021.95 1022.13 1022.03 1021.83 1021.53 1021.54 1022.09 1022.26 1022.13 1021.79 1022.12 1021.79 1021.73 1021.41 1021.24
1013.93 1013.94 1014.49 1014.87 1014.93 1015.83 1015.19 1017.24 1018.67 1018.95 1019.97 1020.16 1020.35 1020.73 1020.96 1021.14 1021.34 1021.43 1021.67 1021.69 1021.63 1021.58 1022.17 1022.00 1021.86 1021.80 1021.75 1021.58 1021.50 1021.71 1022.03 1021.94 1022.13 1021.63 1021.15 1021.78 1022.01 1021.74 1021.87 1021.66 1021.48 1021.10 1021.00
1014.31 1014.61 1014.83 1015.33 1015.70 1016.37 1016.28 1016.94 1018.33 1018.17 1019.17 1019.94 1020.22 1020.31 1020.57 1020.82 1020.97 1021.15 1021.51 1021.86 1021.83 1022.01 1022.22 1021.90 1022.04 1022.07 1021.87 1021.92 1021.84 1021.89 1021.66 1021.48 1021.91 1021.69 1021.60 1021.89 1021.84 1021.52 1021.71 1021.59 1021.22 1020.86 1020.76
Wind_Speed
11 12 13 13 13 13 13 13 14 14 13 12 12 12 11 10 10 10 9 8 9 10 11 12 11 10 10 9 8 8 8 8 7 7 7 7 6 6 5 6 6 4 3
14 13 14 13 13 12 13 13 13 13 13 12 12 11 10 11 13 12 12 11 13 13 11 11 11 10 9 9 9 9 8 8 8 8 8 5 4 6 7 7 7 4 2
15 14 14 13 12 11 12 13 12 12 12 12 11 11 13 12 11 11 12 11 10 10 10 10 10 10 9 9 8 8 8 8 8 7 7 6 6 5 7 7 8 7 4
15 13 13 14 13 13 12 12 12 12 10 11 12 13 11 11 11 11 11 11 10 11 10 11 10 10 10 9 9 9 8 8 8 8 4 6 6 4 8 8 9 7 4
14 13 13 13 13 13 11 12 12 10 12 13 12 11 11 12 12 12 11 11 11 11 10 10 10 10 10 11 11 10 7 7 7 7 7 7 6 3 9 10 10 9 6
14 13 14 12 12 11 12 12 10 13 12 12 11 12 13 13 13 12 11 11 11 10 10 10 11 11 9 9 9 9 10 10 6 7 6 5 6 9 12 12 9 4 5
14 11 13 12 11 11 11 10 13 12 12 11 11 12 12 12 12 11 10 10 10 11 12 11 11 10 10 10 9 11 11 8 8 6 6 6 8 11 14 14 11 5 2
15 12 12 13 12 11 11 12 11 11 11 12 11 11 10 9 9 9 10 12 11 12 12 10 11 11 12 12 11 11 11 9 6 7 7 6 9 11 13 12 10 8 5
12 12 10 11 11 11 12 12 11 11 11 11 11 9 9 8 8 9 10 11 11 11 11 11 11 11 12 11 11 10 10 10 7 6 7 8 13 14 13 12 10 9 9
10 10 9 8 10 10 11 10 11 11 9 9 9 10 10 11 12 11 7 11 11 11 12 12 12 11 11 11 11 10 8 6 7 7 7 9 12 13 13 13 12 11 10
9 9 9 9 10 9 9 9 11 10 8 7 9 9 7 5 6 8 11 11 11 10 12 12 12 12 8 10 11 11 8 6 7 6 7 14 14 14 13 13 13 12 13
13 11 9 10 10 10 7 9 7 6 4 5 6 5 4 5 6 8 10 10 12 12 12 13 13 10 8 7 6 7 6 7 7 6 8 15 14 15 14 15 14 15 15
14 11 11 10 10 10 8 6 4 4 4 5 6 5 5 5 4 4 4 4 4 8 5 7 7 7 10 7 7 7 7 7 6 6 12 16 16 17 16 16 17 16 15
14 14 12 13 11 10 7 6 6 5 4 4 5 6 5 4 4 4 4 5 4 4 5 5 5 7 9 9 10 10 10 9 7 6 12 18 18 17 17 18 18 19 19
15 14 13 13 12 10 9 7 6 5 4 5 5 6 5 5 5 4 5 5 4 4 4 5 5 5 8 9 9 10 10 10 10 6 7 18 18 18 18 18 18 17 18
13 15 14 15 13 11 9 9 7 5 6 5 4 4 6 5 4 5 5 5 5 4 4 3 4 5 6 6 8 9 9 9 10 10 7 10 18 19 19 19 19 19 20
12 12 13 13 12 11 8 8 6 6 5 5 6 7 6 6 6 5 5 4 4 4 4 4 5 4 5 5 7 7 7 7 8 9 8 7 8 17 18 18 17 17 17
9 11 12 11 10 8 6 5 4 5 4 4 4 6 7 8 6 5 4 4 3 3 3 4 3 4 4 4 4 4 5 6 8 8 8 7 8 7 13 16 17 17 17
10 11 11 10 9 8 5 3 2 4 3 5 3 4 7 8 6 5 4 4 2 3 3 4 4 2 4 3 4 3 4 5 5 6 8 8 9 8 6 13 14 15 16
11 11 9 9 10 9 6 5 4 3 3 4 0 2 7 6 6 5 5 4 3 3 4 4 5 4 2 2 4 3 3 4 3 4 5 5 6 6 6 7 6 8 14
13 13 13 12 9 7 5 4 3 2 2 2 2 2 4 6 6 6 4 4 4 4 3 4 4 5 4 2 6 4 3 3 2 2 2 1 3 3 3 3 3 4 5
12 12 13 13 13 10 4 2 3 3 1 2 1 1 4 5 5 6 5 4 4 4 4 3 3 3 3 2 4 4 4 4 3 1 2 2 2 2 2 3 3 3 3
12 13 16 17 15 4 13 6 4 5 2 2 3 4 4 6 5 5 5 4 4 2 4 2 3 2 3 3 2 4 3 4 3 1 1 3 5 4 4 4 6 5 4
14 16 19 21 21 20 17 10 13 8 6 5 6 4 4 5 6 6 6 4 4 3 4 3 3 3 1 5 5 4 3 3 3 3 3 1 3 3 3 4 5 6 5
16 17 18 19 13 9 16 12 10 10 5 4 6 9 6 6 6 6 5 5 4 3 4 4 4 4 3 2 3 3 3 4 2 3 2 0 2 1 3 3 4 4 4
12 11 12 13 8 9 11 11 13 14 11 6 8 9 7 7 6 6 6 4 4 4 4 4 5 5 4 4 4 3 2 1 2 1 1 2 5 3 4 5 4 4 2
Wind_Direction
159 146 129 134 137 132 123 119 116 110 108 103 99 100 94 89 86 76 79 78 76 67 53 47 42 40 42 41 38 32 31 26 13 5 350 341 332 323 309 300 304 281 29
149 146 140 142 139 133 127 119 110 107 104 101 96 91 93 83 73 64 55 44 47 49 43 39 38 36 33 30 25 20 15 18 13 8 358 314 286 311 299 288 294 337 296
147 145 145 145 138 130 123 119 112 107 104 105 104 94 77 73 65 61 57 53 52 47 43 36 31 27 22 18 12 5 2 3 1 4 344 321 313 316 297 278 272 275 287
145 146 148 149 144 139 131 121 114 111 111 107 91 79 76 73 68 64 60 57 51 50 46 43 38 34 26 20 13 359 351 350 348 350 320 323 312 315 304 293 266 251 253
148 149 149 150 145 139 135 122 118 120 102 92 90 85 79 74 68 65 63 64 61 57 51 44 41 34 32 30 22 9 6 356 357 316 334 330 316 324 305 290 266 225 222
152 154 140 145 145 142 133 125 127 101 96 96 91 92 82 73 67 63 59 59 58 50 44 48 45 37 27 24 15 20 25 22 322 355 345 347 314 340 297 287 239 200 200
152 155 148 150 144 139 131 134 109 107 104 101 100 98 84 74 67 57 55 57 57 54 54 48 45 42 36 36 38 45 40 29 5 27 13 14 40 39 47 49 60 97 49
155 158 152 149 148 148 144 114 113 111 110 111 104 97 88 78 70 60 64 63 66 48 46 41 55 57 53 50 48 52 45 22 34 29 38 57 31 41 50 54 56 53 36
160 160 160 156 152 139 121 123 121 122 121 117 110 96 77 72 80 82 79 70 63 53 52 65 63 58 51 46 47 46 46 36 32 53 43 46 39 47 49 52 51 47 40
166 163 159 159 158 156 145 135 134 127 124 118 107 90 81 78 98 90 100 70 67 62 71 70 65 57 53 46 42 41 42 37 44 47 53 42 41 44 42 41 37 28 26
177 169 169 170 166 158 148 142 136 119 98 137 110 92 98 97 95 82 71 69 63 74 77 75 68 59 52 55 41 36 30 30 41 45 49 33 38 38 36 38 36 35 39
186 179 181 178 177 163 154 141 131 122 109 113 110 112 104 96 81 75 69 60 65 80 74 72 65 56 45 41 52 50 46 47 48 38 49 40 41 44 51 48 43 44 42
184 187 187 185 183 178 155 153 144 139 129 120 116 114 96 103 89 79 76 64 71 78 78 75 69 52 47 42 52 51 47 49 51 41 51 50 51 51 53 53 52 56 54
185 191 190 196 189 185 161 168 150 151 141 133 119 124 121 122 94 71 75 72 65 70 81 75 75 66 61 57 56 60 57 52 52 54 54 50 52 56 60 62 61 61 59
190 193 194 196 194 185 176 163 158 147 146 131 144 130 139 128 117 105 97 85 72 74 80 90 89 79 73 64 59 57 55 54 52 47 51 52 51 52 55 58 60 61 58
194 193 195 200 195 188 183 171 159 151 141 135 134 134 130 121 117 116 112 100 89 71 86 110 110 93 82 77 67 57 53 52 52 47 50 55 51 55 58 60 63 64 66
199 192 198 201 201 190 192 175 161 149 148 146 132 135 123 120 118 118 109 104 95 87 107 112 111 118 106 90 73 65 69 62 58 51 52 47 55 54 52 59 59 63 64
198 196 194 198 198 195 191 186 171 151 147 133 137 135 129 121 122 109 103 76 68 103 126 109 116 125 126 119 105 78 73 67 59 61 53 48 51 42 62 46 45 46 53
200 193 194 195 194 188 180 167 137 121 128 110 157 144 133 126 124 110 95 90 102 132 114 119 104 111 136 151 144 116 89 70 55 62 65 58 55 46 52 60 51 54 54
191 190 186 183 179 161 134 102 59 51 57 57 92 146 139 126 121 113 99 90 111 127 124 103 97 77 85 167 157 125 97 92 62 68 69 64 58 49 55 47 46 62 45
179 169 165 150 145 143 120 117 120 121 72 31 313 144 134 127 125 113 97 94 86 94 100 126 116 87 94 165 163 143 114 110 99 38 48 62 70 37 27 47 35 25 47
173 155 144 126 103 81 51 122 144 162 152 134 236 217 143 137 135 111 112 95 72 99 102 133 133 128 86 166 238 191 185 166 166 9 315 290 309 286 280 300 315 350 350
150 141 120 113 114 136 154 169 122 102 78 138 175 197 171 152 132 118 100 90 97 88 91 93 96 133 140 107 234 296 192 247 181 167 59 329 315 275 285 287 286 286 305
141 140 145 152 164 188 180 182 167 155 190 182 183 177 169 162 148 136 118 122 92 80 96 97 114 105 146 113 120 72 45 2 236 208 172 12 325 284 302 295 290 276 279
158 164 167 169 186 187 161 172 183 175 203 158 167 161 164 155 161 151 141 127 115 106 105 102 121 130 119 93 103 134 88 91 97 277 247 215 200 59 322 297 325 301 271
182 181 187 174 190 172 164 164 196 177 170 159 180 169 171 170 164 162 146 154 137 134 162 131 111 104 90 94 99 113 120 89 80 49 302 274 311 298 278 270 281 325 293